欧洲卫星公司-8星 (SES-8)

导读

SES 8卫星由SES公司发射,于协调世界时2013年12月3日8时成功进入太空,是一颗商用通信卫星。它主要为亚太区域提供广播、通信等服务,搭载多台转发器,可支持高清电视传输、宽带网络接入等业务,补充区域通信容量,助力提升亚太地区媒体和互联通信服务稳定性,至今已稳定服役十余年。

基本信息
目录编号:
39460
目录名称:
SES 8
国际标识:
2013-071A
轨道中心:
EARTH
卫星名称:
欧洲卫星公司-8星
卫星全名:
欧洲卫星公司-8星 (SES-8)
卫星状态:
在轨 (已飞行4665 天)
发射日期:
2013-12-03 UTC
国别 :
(SES)
星等 :
--
该卫星已列入 空间交会检测服务 Space Conjunction Data Service (SCDS) ,当前飞行风险评估等级: 无高风险
轨道信息
数据来源 国际轨道数据 AOE轨道数据
星历时间 2026-09-11T06:57:52+0800
8小时前
查看轨道信息
2026-09-11T01:00:00+0800
14小时前
查看轨道信息
半长轴 42164.588km 42164.7km
偏心率 0.0002021 0.0001985
轨道倾角 0.054° 0.055°
近地点辐角 238.696° 236.958°
升交点赤经 271.775° 271.414°
平近点角 278.986° 191.370°
近地点 35777.929km 35778.193km
远地点 35794.973km 35794.933km
周期 1436.090分钟 1436.095分钟
每日圈数 1.002723 1.002719
详细信息
卫星平台:
STAR-2.4
平衡模式:
三轴稳定
覆盖范围:
大西洋
运营商:
欧洲卫星公司
运营商所在国:
卢森堡
制造商(研发单位):
轨道ATK公司
制造商所在国:
美国
使用方式:
暂无
卫星简介
欧洲卫星公司:成立于1985年,总部设在卢森堡。该公司通过运营ASTRA、AMERICOM及 NEW SKIES卫星系统为客户提供电视、广播和多媒体直接到户的信息传送服务,是世界第二大卫星运营商。该卫星仍在工作。
2D轨道图
3D轨道图
轨道高度分析图
轨道倾角分析图
轨道综合分析图
查看轨道综合分析图
与全量物体交会距离演化趋势
与全量物体交会风险概率演化趋势